Location: Orange Harbor Mobile Home Park
(26.6923°N, 81.7937°W)
Time: 08:27:38
(UTC+00:00)

Cosmos 1844 - Pass Details

Date: 19 September 2020
Orbit: 824 x 866 km, 70.9° (Epoch: 29 October)

Event Time Altitude Azimuth Distance (km) Brightness Sun altitude
Rises 00:25:14 0° 175° (S) 3,422 6.7 -13.7°
Reaches altitude 10° 00:27:54 10° 166° (SSE) 2,484 5.9 -14.3°
Maximum altitude 00:32:57 33° 103° (ESE) 1,392 4.3 -15.4°
Drops below altitude 10° 00:37:59 10° 41° (NE) 2,470 5.8 -16.5°
Sets 00:40:37 0° 32° (NNE) 3,401 6.6 -17.1°
